Time,TemperatureF,DewpointF,PressureIn,WindDirection,WindDirectionDegrees,WindSpeedMPH,WindSpeedGustMPH,Humidity,HourlyPrecipIn,Conditions,Clouds,dailyrainin,SoftwareType,DateUTC
2013-12-05 00:00:00,50.2,38.1,29.86,NNE,14,9.0,11.0,63,0.00,,,0.00,Wunderground v.1.15,2013-12-05 06:00:00,
2013-12-05 00:10:00,49.9,37.8,29.87,NNE,30,9.0,12.0,63,0.00,,,0.00,Wunderground v.1.15,2013-12-05 06:10:00,
2013-12-05 00:15:00,49.7,37.2,29.87,NNE,13,8.0,12.0,62,0.00,,,0.00,Wunderground v.1.15,2013-12-05 06:15:00,
2013-12-05 00:20:00,49.6,37.5,29.87,North,9,9.0,9.0,63,0.00,,,0.00,Wunderground v.1.15,2013-12-05 06:20:00,
2013-12-05 00:25:00,49.5,37.8,29.86,North,355,10.0,11.0,64,0.00,,,0.00,Wunderground v.1.15,2013-12-05 06:25:00,
2013-12-05 00:35:00,49.0,36.9,29.87,North,9,11.0,13.0,63,0.00,,,0.00,Wunderground v.1.15,2013-12-05 06:35:00,
2013-12-05 00:45:00,48.5,36.9,29.87,North,355,9.0,10.0,64,0.00,,,0.00,Wunderground v.1.15,2013-12-05 06:45:00,
2013-12-05 00:50:00,48.3,36.3,29.86,North,355,10.0,10.0,63,0.00,,,0.00,Wunderground v.1.15,2013-12-05 06:50:00,
2013-12-05 00:55:00,48.0,36.0,29.86,NNE,19,11.0,11.0,63,0.00,,,0.00,Wunderground v.1.15,2013-12-05 06:55:00,
2013-12-05 01:00:00,47.7,35.7,29.87,NE,36,10.0,12.0,63,0.00,,,0.00,Wunderground v.1.15,2013-12-05 07:00:00,
2013-12-05 01:10:00,47.3,35.7,29.88,NNW,342,10.0,10.0,64,0.00,,,0.00,Wunderground v.1.15,2013-12-05 07:10:00,
2013-12-05 01:15:00,47.1,35.1,29.88,NW,326,10.0,15.0,63,0.00,,,0.00,Wunderground v.1.15,2013-12-05 07:15:00,
2013-12-05 01:25:00,46.3,34.4,29.90,NNW,327,12.0,14.0,63,0.00,,,0.00,Wunderground v.1.15,2013-12-05 07:25:00,
2013-12-05 01:30:00,45.8,33.9,29.90,WNW,293,14.0,14.0,63,0.00,,,0.00,Wunderground v.1.15,2013-12-05 07:30:00,
2013-12-05 01:35:00,45.2,33.7,29.90,NNW,335,15.0,15.0,64,0.00,,,0.00,Wunderground v.1.15,2013-12-05 07:35:00,
2013-12-05 01:40:00,44.7,33.3,29.90,NNW,327,15.0,15.0,64,0.00,,,0.00,Wunderground v.1.15,2013-12-05 07:40:00,
2013-12-05 01:45:00,44.4,33.0,29.91,NNW,338,14.0,21.0,64,0.00,,,0.00,Wunderground v.1.15,2013-12-05 07:45:00,
2013-12-05 01:55:00,44.0,32.6,29.91,NNW,346,13.0,19.0,64,0.00,,,0.00,Wunderground v.1.15,2013-12-05 07:55:00,
2013-12-05 02:00:00,43.4,31.6,29.90,NNW,338,14.0,16.0,63,0.00,,,0.00,Wunderground v.1.15,2013-12-05 08:00:00,
2013-12-05 02:10:00,42.5,31.2,29.92,NNW,328,14.0,23.0,64,0.00,,,0.00,Wunderground v.1.15,2013-12-05 08:10:00,
2013-12-05 02:15:00,42.2,30.9,29.93,NNW,336,15.0,23.0,64,0.00,,,0.00,Wunderground v.1.15,2013-12-05 08:15:00,
2013-12-05 02:20:00,42.0,30.7,29.93,NNW,332,15.0,15.0,64,0.00,,,0.00,Wunderground v.1.15,2013-12-05 08:20:00,
2013-12-05 02:25:00,41.7,30.4,29.93,North,355,15.0,16.0,64,0.00,,,0.00,Wunderground v.1.15,2013-12-05 08:25:00,
2013-12-05 02:30:00,41.5,30.6,29.95,North,360,15.0,15.0,65,0.00,,,0.00,Wunderground v.1.15,2013-12-05 08:30:00,
2013-12-05 02:40:00,41.2,29.9,29.94,NNW,347,16.0,16.0,64,0.00,,,0.00,Wunderground v.1.15,2013-12-05 08:40:00,
2013-12-05 02:45:00,40.9,29.7,29.95,NNE,17,16.0,16.0,64,0.00,,,0.00,Wunderground v.1.15,2013-12-05 08:45:00,
2013-12-05 02:50:00,40.6,29.4,29.96,North,360,16.0,16.0,64,0.00,,,0.00,Wunderground v.1.15,2013-12-05 08:50:00,
2013-12-05 02:55:00,40.5,29.3,29.96,North,349,13.0,16.0,64,0.00,,,0.00,Wunderground v.1.15,2013-12-05 08:55:00,
2013-12-05 03:00:00,40.5,29.7,29.97,NNW,346,12.0,15.0,65,0.00,,,0.00,Wunderground v.1.15,2013-12-05 09:00:00,
2013-12-05 03:10:00,40.4,29.6,29.96,North,9,13.0,13.0,65,0.00,,,0.00,Wunderground v.1.15,2013-12-05 09:10:00,
2013-12-05 03:20:00,39.8,28.6,29.97,NW,314,16.0,16.0,64,0.00,,,0.00,Wunderground v.1.15,2013-12-05 09:20:00,
2013-12-05 03:25:00,39.6,28.8,29.97,NNW,327,16.0,21.0,65,0.00,,,0.00,Wunderground v.1.15,2013-12-05 09:25:00,
2013-12-05 03:30:00,39.2,28.4,29.98,NNW,333,16.0,16.0,65,0.00,,,0.00,Wunderground v.1.15,2013-12-05 09:30:00,
2013-12-05 03:35:00,38.9,28.5,29.97,North,355,17.0,17.0,66,0.00,,,0.00,Wunderground v.1.15,2013-12-05 09:35:00,
2013-12-05 03:40:00,38.7,28.3,29.97,NW,326,14.0,14.0,66,0.00,,,0.00,Wunderground v.1.15,2013-12-05 09:40:00,
2013-12-05 03:50:00,38.2,27.8,29.98,NNW,346,16.0,16.0,66,0.00,,,0.00,Wunderground v.1.15,2013-12-05 09:50:00,
2013-12-05 03:55:00,37.9,27.9,29.98,NNW,342,15.0,16.0,67,0.00,,,0.00,Wunderground v.1.15,2013-12-05 09:55:00,
2013-12-05 04:05:00,37.5,27.9,29.99,NNW,330,14.0,17.0,68,0.00,,,0.00,Wunderground v.1.15,2013-12-05 10:05:00,
2013-12-05 04:10:00,37.3,28.1,30.00,NNW,333,14.0,22.0,69,0.00,,,0.00,Wunderground v.1.15,2013-12-05 10:10:00,
2013-12-05 04:20:00,36.7,27.8,30.00,NNW,342,16.0,18.0,70,0.00,,,0.00,Wunderground v.1.15,2013-12-05 10:20:00,
2013-12-05 04:25:00,36.6,27.7,30.00,NNW,338,16.0,18.0,70,0.00,,,0.00,Wunderground v.1.15,2013-12-05 10:25:00,
2013-12-05 04:30:00,36.5,27.6,30.00,NNW,340,15.0,15.0,70,0.00,,,0.00,Wunderground v.1.15,2013-12-05 10:30:00,
2013-12-05 04:35:00,36.5,28.0,30.00,NNW,346,14.0,15.0,71,0.00,,,0.00,Wunderground v.1.15,2013-12-05 10:35:00,
2013-12-05 04:40:00,36.6,28.4,30.02,NNW,336,14.0,14.0,72,0.00,,,0.00,Wunderground v.1.15,2013-12-05 10:40:00,
2013-12-05 04:50:00,36.5,28.0,30.02,North,5,14.0,14.0,71,0.00,,,0.00,Wunderground v.1.15,2013-12-05 10:50:00,
2013-12-05 04:55:00,36.4,27.9,30.02,NNW,344,13.0,16.0,71,0.00,,,0.00,Wunderground v.1.15,2013-12-05 10:55:00,
2013-12-05 05:00:00,36.5,27.3,30.02,NNW,333,13.0,16.0,69,0.00,,,0.00,Wunderground v.1.15,2013-12-05 11:00:00,
2013-12-05 05:10:00,36.1,26.9,30.04,NNW,327,16.0,16.0,69,0.00,,,0.00,Wunderground v.1.15,2013-12-05 11:10:00,
2013-12-05 05:15:00,36.0,26.8,30.05,NNW,332,16.0,18.0,69,0.00,,,0.00,Wunderground v.1.15,2013-12-05 11:15:00,
2013-12-05 05:20:00,36.0,26.8,30.03,NNW,340,16.0,16.0,69,0.00,,,0.00,Wunderground v.1.15,2013-12-05 11:20:00,
2013-12-05 05:30:00,35.7,26.2,30.04,NNW,340,17.0,17.0,68,0.00,,,0.00,Wunderground v.1.15,2013-12-05 11:30:00,
2013-12-05 05:35:00,35.7,26.2,30.03,North,355,14.0,17.0,68,0.00,,,0.00,Wunderground v.1.15,2013-12-05 11:35:00,
2013-12-05 05:40:00,35.8,26.3,30.03,NNE,23,12.0,12.0,68,0.00,,,0.00,Wunderground v.1.15,2013-12-05 11:40:00,
2013-12-05 05:45:00,35.8,25.9,30.03,North,9,12.0,12.0,67,0.00,,,0.00,Wunderground v.1.15,2013-12-05 11:45:00,
2013-12-05 05:50:00,35.9,26.0,30.04,NNW,346,11.0,20.0,67,0.00,,,0.00,Wunderground v.1.15,2013-12-05 11:50:00,
2013-12-05 06:00:00,35.9,25.6,30.05,NNW,346,11.0,11.0,66,0.00,,,0.00,Wunderground v.1.15,2013-12-05 12:00:00,
2013-12-05 06:10:00,35.7,24.7,30.05,North,355,12.0,12.0,64,0.00,,,0.00,Wunderground v.1.15,2013-12-05 12:10:00,
2013-12-05 06:15:00,35.7,24.7,30.05,North,355,12.0,18.0,64,0.00,,,0.00,Wunderground v.1.15,2013-12-05 12:15:00,
2013-12-05 06:20:00,35.6,24.6,30.05,North,355,14.0,15.0,64,0.00,,,0.00,Wunderground v.1.15,2013-12-05 12:20:00,
2013-12-05 06:25:00,35.4,24.4,30.06,North,5,15.0,17.0,64,0.00,,,0.00,Wunderground v.1.15,2013-12-05 12:25:00,
2013-12-05 06:30:00,35.4,24.4,30.06,NW,324,14.0,17.0,64,0.00,,,0.00,Wunderground v.1.15,2013-12-05 12:30:00,
2013-12-05 06:40:00,35.3,24.3,30.06,North,355,13.0,13.0,64,0.00,,,0.00,Wunderground v.1.15,2013-12-05 12:40:00,
2013-12-05 06:45:00,35.3,24.0,30.06,NNW,338,12.0,13.0,63,0.00,,,0.00,Wunderground v.1.15,2013-12-05 12:45:00,
2013-12-05 06:50:00,35.3,24.0,30.06,North,5,12.0,13.0,63,0.00,,,0.00,Wunderground v.1.15,2013-12-05 12:50:00,
2013-12-05 06:55:00,35.3,24.0,30.06,North,355,12.0,13.0,63,0.00,,,0.00,Wunderground v.1.15,2013-12-05 12:55:00,
2013-12-05 07:00:00,35.3,24.0,30.07,NNW,348,11.0,12.0,63,0.00,,,0.00,Wunderground v.1.15,2013-12-05 13:00:00,
2013-12-05 07:10:00,35.4,24.0,30.07,NNW,336,11.0,11.0,63,0.00,,,0.00,Wunderground v.1.15,2013-12-05 13:10:00,
2013-12-05 07:15:00,35.4,23.7,30.08,North,355,11.0,11.0,62,0.00,,,0.00,Wunderground v.1.15,2013-12-05 13:15:00,
2013-12-05 07:25:00,35.5,23.8,30.07,NW,315,9.0,17.0,62,0.00,,,0.00,Wunderground v.1.15,2013-12-05 13:25:00,
2013-12-05 07:30:00,35.4,23.3,30.08,NNW,343,10.0,10.0,61,0.00,,,0.00,Wunderground v.1.15,2013-12-05 13:30:00,
2013-12-05 07:35:00,35.4,23.3,30.08,NNW,340,12.0,12.0,61,0.00,,,0.00,Wunderground v.1.15,2013-12-05 13:35:00,
2013-12-05 07:40:00,35.4,23.3,30.08,NNW,348,11.0,11.0,61,0.00,,,0.00,Wunderground v.1.15,2013-12-05 13:40:00,
2013-12-05 07:45:00,35.4,23.3,30.08,NNE,15,12.0,13.0,61,0.00,,,0.00,Wunderground v.1.15,2013-12-05 13:45:00,
2013-12-05 07:55:00,35.4,22.9,30.08,North,9,11.0,17.0,60,0.00,,,0.00,Wunderground v.1.15,2013-12-05 13:55:00,
2013-12-05 08:00:00,35.5,23.0,30.09,North,11,9.0,11.0,60,0.00,,,0.00,Wunderground v.1.15,2013-12-05 14:00:00,
2013-12-05 08:10:00,35.5,22.6,30.10,North,5,11.0,13.0,59,0.00,,,0.00,Wunderground v.1.15,2013-12-05 14:10:00,
2013-12-05 08:15:00,35.4,22.1,30.10,NNW,336,12.0,13.0,58,0.00,,,0.00,Wunderground v.1.15,2013-12-05 14:15:00,
2013-12-05 08:20:00,35.3,22.0,30.10,NNW,333,13.0,18.0,58,0.00,,,0.00,Wunderground v.1.15,2013-12-05 14:20:00,
2013-12-05 08:25:00,35.2,21.5,30.10,NW,325,13.0,18.0,57,0.00,,,0.00,Wunderground v.1.15,2013-12-05 14:25:00,
2013-12-05 08:30:00,35.1,21.8,30.11,NNW,347,13.0,16.0,58,0.00,,,0.00,Wunderground v.1.15,2013-12-05 14:30:00,
2013-12-05 08:40:00,35.1,21.8,30.10,NNW,344,13.0,13.0,58,0.00,,,0.00,Wunderground v.1.15,2013-12-05 14:40:00,
2013-12-05 08:45:00,35.1,21.8,30.10,NNW,342,12.0,13.0,58,0.00,,,0.00,Wunderground v.1.15,2013-12-05 14:45:00,
2013-12-05 08:50:00,35.2,21.9,30.09,North,5,12.0,16.0,58,0.00,,,0.00,Wunderground v.1.15,2013-12-05 14:50:00,
2013-12-05 08:55:00,35.2,21.9,30.10,NNW,344,12.0,16.0,58,0.00,,,0.00,Wunderground v.1.15,2013-12-05 14:55:00,
2013-12-05 09:00:00,35.2,21.9,30.10,North,360,13.0,13.0,58,0.00,,,0.00,Wunderground v.1.15,2013-12-05 15:00:00,
2013-12-05 09:10:00,35.1,21.8,30.11,NNW,338,11.0,16.0,58,0.00,,,0.00,Wunderground v.1.15,2013-12-05 15:10:00,
2013-12-05 09:20:00,35.0,22.1,30.12,NNW,334,15.0,15.0,59,0.00,,,0.00,Wunderground v.1.15,2013-12-05 15:20:00,
2013-12-05 09:25:00,34.9,22.0,30.10,North,360,13.0,15.0,59,0.00,,,0.00,Wunderground v.1.15,2013-12-05 15:25:00,
2013-12-05 09:30:00,35.0,22.1,30.10,NW,323,12.0,15.0,59,0.00,,,0.00,Wunderground v.1.15,2013-12-05 15:30:00,
2013-12-05 09:35:00,35.0,22.1,30.11,NNW,342,13.0,15.0,59,0.00,,,0.00,Wunderground v.1.15,2013-12-05 15:35:00,
2013-12-05 09:40:00,35.1,21.8,30.11,NNW,340,13.0,13.0,58,0.00,,,0.00,Wunderground v.1.15,2013-12-05 15:40:00,
2013-12-05 09:50:00,35.1,21.8,30.11,North,9,11.0,16.0,58,0.00,,,0.00,Wunderground v.1.15,2013-12-05 15:50:00,
2013-12-05 09:55:00,35.2,21.9,30.12,North,355,11.0,19.0,58,0.00,,,0.00,Wunderground v.1.15,2013-12-05 15:55:00,
2013-12-05 10:00:00,35.1,21.8,30.12,North,5,12.0,13.0,58,0.00,,,0.00,Wunderground v.1.15,2013-12-05 16:00:00,
2013-12-05 10:10:00,35.1,21.8,30.11,North,9,12.0,12.0,58,0.00,,,0.00,Wunderground v.1.15,2013-12-05 16:10:00,
2013-12-05 10:15:00,35.3,22.0,30.12,North,9,10.0,12.0,58,0.00,,,0.00,Wunderground v.1.15,2013-12-05 16:15:00,
2013-12-05 10:20:00,35.5,21.8,30.12,North,355,8.0,12.0,57,0.00,,,0.00,Wunderground v.1.15,2013-12-05 16:20:00,
2013-12-05 10:30:00,35.5,21.8,30.12,North,355,11.0,11.0,57,0.00,,,0.00,Wunderground v.1.15,2013-12-05 16:30:00,
2013-12-05 10:35:00,35.5,21.3,30.14,North,360,11.0,12.0,56,0.00,,,0.00,Wunderground v.1.15,2013-12-05 16:35:00,
2013-12-05 10:40:00,35.5,21.8,30.14,NW,323,11.0,18.0,57,0.00,,,0.00,Wunderground v.1.15,2013-12-05 16:40:00,
2013-12-05 10:45:00,35.5,21.8,30.14,NNW,346,11.0,18.0,57,0.00,,,0.00,Wunderground v.1.15,2013-12-05 16:45:00,
2013-12-05 10:50:00,35.5,21.8,30.14,North,349,12.0,13.0,57,0.00,,,0.00,Wunderground v.1.15,2013-12-05 16:50:00,
2013-12-05 11:00:00,35.5,21.8,30.14,North,355,13.0,13.0,57,0.00,,,0.00,Wunderground v.1.15,2013-12-05 17:00:00,
2013-12-05 11:10:00,35.5,21.8,30.14,NW,317,12.0,13.0,57,0.00,,,0.00,Wunderground v.1.15,2013-12-05 17:10:00,
2013-12-05 11:15:00,35.3,21.6,30.15,NNW,333,14.0,15.0,57,0.00,,,0.00,Wunderground v.1.15,2013-12-05 17:15:00,
2013-12-05 11:20:00,35.0,20.9,30.15,NNW,333,13.0,13.0,56,0.00,,,0.00,Wunderground v.1.15,2013-12-05 17:20:00,
2013-12-05 11:25:00,34.7,21.0,30.15,North,351,13.0,13.0,57,0.00,,,0.00,Wunderground v.1.15,2013-12-05 17:25:00,
2013-12-05 11:30:00,34.6,20.9,30.15,NNW,329,12.0,22.0,57,0.00,,,0.00,Wunderground v.1.15,2013-12-05 17:30:00,
2013-12-05 11:35:00,34.6,20.9,30.15,NNW,335,13.0,22.0,57,0.00,,,0.00,Wunderground v.1.15,2013-12-05 17:35:00,
2013-12-05 11:45:00,34.5,21.2,30.14,NNW,327,13.0,19.0,58,0.00,,,0.00,Wunderground v.1.15,2013-12-05 17:45:00,
2013-12-05 11:50:00,34.4,21.5,30.14,North,9,14.0,15.0,59,0.00,,,0.00,Wunderground v.1.15,2013-12-05 17:50:00,
2013-12-05 11:55:00,34.3,21.4,30.14,NNW,336,13.0,15.0,59,0.00,,,0.00,Wunderground v.1.15,2013-12-05 17:55:00,
2013-12-05 12:00:00,34.3,21.4,30.14,NNW,336,12.0,13.0,59,0.00,,,0.00,Wunderground v.1.15,2013-12-05 18:00:00,
2013-12-05 12:10:00,34.2,21.4,30.13,NNW,338,13.0,16.0,59,0.00,,,0.00,Wunderground v.1.15,2013-12-05 18:10:00,
2013-12-05 12:15:00,34.2,21.4,30.13,NNW,342,12.0,16.0,59,0.00,,,0.00,Wunderground v.1.15,2013-12-05 18:15:00,
2013-12-05 12:20:00,34.2,20.9,30.12,NNW,345,12.0,12.0,58,0.00,,,0.00,Wunderground v.1.15,2013-12-05 18:20:00,
2013-12-05 12:30:00,34.1,20.9,30.10,North,355,14.0,14.0,58,0.00,,,0.00,Wunderground v.1.15,2013-12-05 18:30:00,
2013-12-05 12:35:00,34.2,21.4,30.10,NNE,12,12.0,14.0,59,0.00,,,0.00,Wunderground v.1.15,2013-12-05 18:35:00,
2013-12-05 12:40:00,34.3,21.0,30.09,NNW,348,10.0,12.0,58,0.00,,,0.00,Wunderground v.1.15,2013-12-05 18:40:00,
2013-12-05 12:45:00,34.3,21.0,30.09,North,5,13.0,13.0,58,0.00,,,0.00,Wunderground v.1.15,2013-12-05 18:45:00,
2013-12-05 12:55:00,34.0,21.2,30.10,NNW,342,12.0,17.0,59,0.00,,,0.00,Wunderground v.1.15,2013-12-05 18:55:00,
2013-12-05 13:05:00,33.7,20.9,30.09,NNW,341,13.0,13.0,59,0.00,,,0.00,Wunderground v.1.15,2013-12-05 19:05:00,
2013-12-05 13:10:00,33.7,21.3,30.09,North,360,11.0,11.0,60,0.00,,,0.00,Wunderground v.1.15,2013-12-05 19:10:00,
2013-12-05 13:15:00,33.8,21.0,30.09,North,360,9.0,11.0,59,0.00,,,0.00,Wunderground v.1.15,2013-12-05 19:15:00,
2013-12-05 13:25:00,33.7,21.3,30.10,North,355,12.0,14.0,60,0.00,,,0.00,Wunderground v.1.15,2013-12-05 19:25:00,
2013-12-05 13:30:00,33.7,21.3,30.09,NNW,336,12.0,14.0,60,0.00,,,0.00,Wunderground v.1.15,2013-12-05 19:30:00,
2013-12-05 13:35:00,33.7,20.9,30.09,North,360,13.0,14.0,59,0.00,,,0.00,Wunderground v.1.15,2013-12-05 19:35:00,
2013-12-05 13:40:00,33.5,20.7,30.10,NNW,342,14.0,14.0,59,0.00,,,0.00,Wunderground v.1.15,2013-12-05 19:40:00,
2013-12-05 13:45:00,33.5,20.7,30.10,North,9,14.0,14.0,59,0.00,,,0.00,Wunderground v.1.15,2013-12-05 19:45:00,
2013-12-05 13:55:00,33.5,20.7,30.10,NNW,340,13.0,13.0,59,0.00,,,0.00,Wunderground v.1.15,2013-12-05 19:55:00,
2013-12-05 14:00:00,33.5,20.7,30.12,NNW,344,12.0,12.0,59,0.00,,,0.00,Wunderground v.1.15,2013-12-05 20:00:00,
2013-12-05 14:10:00,33.7,20.5,30.11,NNW,346,10.0,10.0,58,0.00,,,0.00,Wunderground v.1.15,2013-12-05 20:10:00,
2013-12-05 14:15:00,33.7,20.9,30.10,North,5,10.0,16.0,59,0.00,,,0.00,Wunderground v.1.15,2013-12-05 20:15:00,
2013-12-05 14:20:00,33.4,19.8,30.10,NW,319,12.0,12.0,57,0.00,,,0.00,Wunderground v.1.15,2013-12-05 20:20:00,
2013-12-05 14:25:00,33.1,19.9,30.10,North,355,14.0,25.0,58,0.00,,,0.00,Wunderground v.1.15,2013-12-05 20:25:00,
2013-12-05 14:30:00,32.8,20.0,30.10,NNE,16,16.0,17.0,59,0.00,,,0.00,Wunderground v.1.15,2013-12-05 20:30:00,
2013-12-05 14:40:00,32.5,20.1,30.11,NNW,341,15.0,15.0,60,0.00,,,0.00,Wunderground v.1.15,2013-12-05 20:40:00,
2013-12-05 14:45:00,32.3,20.3,30.10,NNW,335,14.0,20.0,61,0.00,,,0.00,Wunderground v.1.15,2013-12-05 20:45:00,
2013-12-05 15:00:00,31.8,21.0,30.10,NNW,332,15.0,15.0,64,0.00,,,0.00,Wunderground v.1.15,2013-12-05 21:00:00,
2013-12-05 15:10:00,31.5,22.1,30.10,NNW,340,13.0,13.0,68,0.00,,,0.00,Wunderground v.1.15,2013-12-05 21:10:00,
2013-12-05 15:20:00,31.2,22.5,30.11,North,355,14.0,14.0,70,0.00,,,0.00,Wunderground v.1.15,2013-12-05 21:20:00,
2013-12-05 15:25:00,31.1,22.8,30.10,NNW,340,13.0,14.0,71,0.00,,,0.00,Wunderground v.1.15,2013-12-05 21:25:00,
2013-12-05 15:30:00,31.1,22.8,30.10,North,355,11.0,12.0,71,0.00,,,0.00,Wunderground v.1.15,2013-12-05 21:30:00,
2013-12-05 15:35:00,30.9,23.3,30.10,North,355,12.0,12.0,73,0.00,,,0.00,Wunderground v.1.15,2013-12-05 21:35:00,
2013-12-05 15:40:00,30.8,24.1,30.10,North,5,12.0,12.0,76,0.00,,,0.00,Wunderground v.1.15,2013-12-05 21:40:00,
2013-12-05 15:50:00,30.4,24.4,30.11,North,5,11.0,11.0,78,0.00,,,0.00,Wunderground v.1.15,2013-12-05 21:50:00,
2013-12-05 15:55:00,30.4,24.7,30.10,NNE,15,11.0,11.0,79,0.00,,,0.00,Wunderground v.1.15,2013-12-05 21:55:00,
2013-12-05 16:00:00,30.4,25.0,30.11,North,355,10.0,10.0,80,0.00,,,0.00,Wunderground v.1.15,2013-12-05 22:00:00,
2013-12-05 16:10:00,30.4,25.0,30.11,NNE,21,10.0,13.0,80,0.00,,,0.00,Wunderground v.1.15,2013-12-05 22:10:00,
2013-12-05 16:15:00,30.4,25.0,30.11,North,9,10.0,13.0,80,0.00,,,0.00,Wunderground v.1.15,2013-12-05 22:15:00,
2013-12-05 16:20:00,30.4,25.0,30.11,NNW,345,11.0,11.0,80,0.00,,,0.00,Wunderground v.1.15,2013-12-05 22:20:00,
2013-12-05 16:25:00,30.4,25.0,30.12,North,9,10.0,12.0,80,0.00,,,0.00,Wunderground v.1.15,2013-12-05 22:25:00,
2013-12-05 16:35:00,30.5,25.4,30.11,NNE,12,9.0,10.0,81,0.00,,,0.00,Wunderground v.1.15,2013-12-05 22:35:00,
2013-12-05 16:40:00,30.5,25.4,30.11,North,355,10.0,13.0,81,0.00,,,0.00,Wunderground v.1.15,2013-12-05 22:40:00,
2013-12-05 16:45:00,30.4,25.6,30.12,North,360,10.0,13.0,82,0.00,,,0.00,Wunderground v.1.15,2013-12-05 22:45:00,
2013-12-05 16:50:00,30.4,25.6,30.12,North,360,10.0,10.0,82,0.00,,,0.00,Wunderground v.1.15,2013-12-05 22:50:00,
2013-12-05 16:55:00,30.2,25.7,30.12,North,360,10.0,10.0,83,0.00,,,0.00,Wunderground v.1.15,2013-12-05 22:55:00,
2013-12-05 17:00:00,30.1,25.8,30.13,NNW,338,10.0,13.0,84,0.00,,,0.00,Wunderground v.1.15,2013-12-05 23:00:00,
2013-12-05 17:10:00,29.7,25.7,30.13,NNW,338,10.0,10.0,85,0.00,,,0.00,Wunderground v.1.15,2013-12-05 23:10:00,
2013-12-05 17:20:00,29.7,26.3,30.12,North,5,8.0,9.0,87,0.00,,,0.00,Wunderground v.1.15,2013-12-05 23:20:00,
2013-12-05 17:25:00,29.8,26.4,30.13,North,355,7.0,9.0,87,0.00,,,0.00,Wunderground v.1.15,2013-12-05 23:25:00,
2013-12-05 17:30:00,29.7,26.6,30.12,North,9,8.0,8.0,88,0.00,,,0.00,Wunderground v.1.15,2013-12-05 23:30:00,
2013-12-05 17:35:00,29.7,26.6,30.12,NNE,14,8.0,8.0,88,0.00,,,0.00,Wunderground v.1.15,2013-12-05 23:35:00,
2013-12-05 17:45:00,29.6,26.5,30.13,North,350,8.0,8.0,88,0.00,,,0.00,Wunderground v.1.15,2013-12-05 23:45:00,
2013-12-05 17:50:00,29.7,26.9,30.14,North,355,8.0,9.0,89,0.00,,,0.00,Wunderground v.1.15,2013-12-05 23:50:00,
2013-12-05 17:55:00,29.8,27.0,30.14,NNW,348,7.0,10.0,89,0.00,,,0.00,Wunderground v.1.15,2013-12-05 23:55:00,
2013-12-05 18:00:00,29.9,27.1,30.14,NNW,344,8.0,8.0,89,0.00,,,0.00,Wunderground v.1.15,2013-12-06 00:00:00,
2013-12-05 18:10:00,29.9,27.1,30.15,NNW,346,9.0,9.0,89,0.00,,,0.00,Wunderground v.1.15,2013-12-06 00:10:00,
2013-12-05 18:15:00,30.0,27.4,30.16,North,355,7.0,12.0,90,0.00,,,0.00,Wunderground v.1.15,2013-12-06 00:15:00,
2013-12-05 18:20:00,30.0,27.4,30.15,NNW,334,8.0,10.0,90,0.00,,,0.00,Wunderground v.1.15,2013-12-06 00:20:00,
2013-12-05 18:30:00,30.1,27.5,30.15,North,9,8.0,8.0,90,0.00,,,0.00,Wunderground v.1.15,2013-12-06 00:30:00,
2013-12-05 18:35:00,30.0,27.4,30.15,North,355,8.0,10.0,90,0.00,,,0.00,Wunderground v.1.15,2013-12-06 00:35:00,
2013-12-05 18:40:00,30.0,27.4,30.15,NNW,345,9.0,9.0,90,0.00,,,0.00,Wunderground v.1.15,2013-12-06 00:40:00,
2013-12-05 18:45:00,30.1,27.5,30.16,North,355,8.0,9.0,90,0.00,,,0.00,Wunderground v.1.15,2013-12-06 00:45:00,
2013-12-05 18:50:00,30.0,27.4,30.15,NW,323,9.0,9.0,90,0.00,,,0.00,Wunderground v.1.15,2013-12-06 00:50:00,
2013-12-05 19:00:00,29.5,26.9,30.16,NW,325,10.0,10.0,90,0.00,,,0.00,Wunderground v.1.15,2013-12-06 01:00:00,
2013-12-05 19:10:00,29.2,26.6,30.16,NNW,348,11.0,11.0,90,0.00,,,0.00,Wunderground v.1.15,2013-12-06 01:10:00,
2013-12-05 19:15:00,29.1,26.5,30.16,North,350,11.0,11.0,90,0.00,,,0.00,Wunderground v.1.15,2013-12-06 01:15:00,
2013-12-05 19:20:00,29.1,26.5,30.15,North,349,10.0,16.0,90,0.00,,,0.00,Wunderground v.1.15,2013-12-06 01:20:00,
2013-12-05 19:25:00,29.0,26.4,30.15,North,355,10.0,16.0,90,0.00,,,0.00,Wunderground v.1.15,2013-12-06 01:25:00,
2013-12-05 19:30:00,29.0,26.2,30.15,North,5,10.0,11.0,89,0.00,,,0.00,Wunderground v.1.15,2013-12-06 01:30:00,
2013-12-05 19:40:00,28.9,26.1,30.16,NW,322,9.0,14.0,89,0.00,,,0.00,Wunderground v.1.15,2013-12-06 01:40:00,
2013-12-05 19:45:00,29.0,26.2,30.16,NNW,348,10.0,14.0,89,0.00,,,0.00,Wunderground v.1.15,2013-12-06 01:45:00,
2013-12-05 19:50:00,29.0,26.2,30.16,North,9,10.0,10.0,89,0.00,,,0.00,Wunderground v.1.15,2013-12-06 01:50:00,
2013-12-05 19:55:00,29.0,26.2,30.16,NNW,334,9.0,10.0,89,0.00,,,0.00,Wunderground v.1.15,2013-12-06 01:55:00,
2013-12-05 20:00:00,28.9,26.1,30.16,NNW,348,8.0,8.0,89,0.00,,,0.00,Wunderground v.1.15,2013-12-06 02:00:00,
2013-12-05 20:10:00,28.8,25.7,30.17,North,355,9.0,9.0,88,0.00,,,0.00,Wunderground v.1.15,2013-12-06 02:10:00,
2013-12-05 20:15:00,28.7,25.6,30.16,NNW,340,9.0,9.0,88,0.00,,,0.00,Wunderground v.1.15,2013-12-06 02:15:00,
2013-12-05 20:25:00,28.8,26.0,30.16,North,360,7.0,9.0,89,0.00,,,0.00,Wunderground v.1.15,2013-12-06 02:25:00,
2013-12-05 20:30:00,28.9,26.1,30.16,North,355,7.0,8.0,89,0.00,,,0.00,Wunderground v.1.15,2013-12-06 02:30:00,
2013-12-05 20:35:00,28.9,26.1,30.16,NNW,327,7.0,12.0,89,0.00,,,0.00,Wunderground v.1.15,2013-12-06 02:35:00,
2013-12-05 20:40:00,28.9,26.1,30.16,North,360,8.0,16.0,89,0.00,,,0.00,Wunderground v.1.15,2013-12-06 02:40:00,
2013-12-05 20:50:00,29.0,26.2,30.17,North,355,8.0,8.0,89,0.00,,,0.00,Wunderground v.1.15,2013-12-06 02:50:00,
2013-12-05 20:55:00,29.1,26.3,30.17,NNW,346,8.0,11.0,89,0.00,,,0.00,Wunderground v.1.15,2013-12-06 02:55:00,
2013-12-05 21:00:00,29.1,26.5,30.17,North,355,9.0,9.0,90,0.00,,,0.00,Wunderground v.1.15,2013-12-06 03:00:00,
2013-12-05 21:10:00,29.2,26.6,30.17,North,350,9.0,9.0,90,0.00,,,0.00,Wunderground v.1.15,2013-12-06 03:10:00,
2013-12-05 21:15:00,29.3,26.7,30.17,NNW,341,8.0,9.0,90,0.00,,,0.00,Wunderground v.1.15,2013-12-06 03:15:00,
2013-12-05 21:20:00,29.3,26.7,30.16,North,5,8.0,8.0,90,0.00,,,0.00,Wunderground v.1.15,2013-12-06 03:20:00,
2013-12-05 21:25:00,29.4,26.8,30.15,NNE,18,7.0,8.0,90,0.00,,,0.00,Wunderground v.1.15,2013-12-06 03:25:00,
2013-12-05 21:35:00,29.7,27.4,30.14,North,11,7.0,10.0,91,0.00,,,0.00,Wunderground v.1.15,2013-12-06 03:35:00,
2013-12-05 21:40:00,29.7,27.4,30.15,NNE,21,8.0,8.0,91,0.00,,,0.00,Wunderground v.1.15,2013-12-06 03:40:00,
2013-12-05 21:45:00,29.9,27.6,30.16,North,5,6.0,8.0,91,0.00,,,0.00,Wunderground v.1.15,2013-12-06 03:45:00,
2013-12-05 21:50:00,30.0,27.7,30.16,North,355,4.0,5.0,91,0.00,,,0.00,Wunderground v.1.15,2013-12-06 03:50:00,
2013-12-05 21:55:00,30.2,27.9,30.16,NNW,334,5.0,5.0,91,0.00,,,0.00,Wunderground v.1.15,2013-12-06 03:55:00,
2013-12-05 22:00:00,30.3,28.0,30.17,NNW,348,7.0,7.0,91,0.00,,,0.00,Wunderground v.1.15,2013-12-06 04:00:00,
2013-12-05 22:10:00,30.4,28.1,30.18,NNW,328,7.0,10.0,91,0.00,,,0.00,Wunderground v.1.15,2013-12-06 04:10:00,
2013-12-05 22:15:00,30.5,28.2,30.19,NNW,338,8.0,12.0,91,0.00,,,0.00,Wunderground v.1.15,2013-12-06 04:15:00,
2013-12-05 22:20:00,30.7,28.7,30.19,NW,323,8.0,8.0,92,0.00,,,0.00,Wunderground v.1.15,2013-12-06 04:20:00,
2013-12-05 22:25:00,30.9,28.9,30.17,NNW,347,7.0,8.0,92,0.00,,,0.00,Wunderground v.1.15,2013-12-06 04:25:00,
2013-12-05 22:30:00,31.0,28.9,30.17,NW,317,6.0,8.0,92,0.00,,,0.01,Wunderground v.1.15,2013-12-06 04:30:00,
2013-12-05 22:35:00,31.0,28.7,30.16,NNW,341,6.0,8.0,91,0.00,,,0.01,Wunderground v.1.15,2013-12-06 04:35:00,
2013-12-05 22:45:00,30.7,28.4,30.18,NW,323,8.0,13.0,91,0.00,,,0.01,Wunderground v.1.15,2013-12-06 04:45:00,
2013-12-05 22:50:00,30.6,28.6,30.17,NNW,344,9.0,9.0,92,0.00,,,0.01,Wunderground v.1.15,2013-12-06 04:50:00,
2013-12-05 22:55:00,30.5,28.5,30.17,North,360,7.0,9.0,92,0.00,,,0.02,Wunderground v.1.15,2013-12-06 04:55:00,
2013-12-05 23:00:00,30.6,28.6,30.15,NNE,22,6.0,6.0,92,0.00,,,0.02,Wunderground v.1.15,2013-12-06 05:00:00,
2013-12-05 23:05:00,30.6,28.6,30.14,North,10,6.0,7.0,92,0.05,,,0.03,Wunderground v.1.15,2013-12-06 05:05:00,
2013-12-05 23:10:00,30.6,28.6,30.15,North,11,8.0,8.0,92,0.05,,,0.03,Wunderground v.1.15,2013-12-06 05:10:00,
2013-12-05 23:15:00,30.6,28.6,30.16,North,355,6.0,8.0,92,0.05,,,0.03,Wunderground v.1.15,2013-12-06 05:15:00,
2013-12-05 23:20:00,30.7,28.7,30.16,North,355,4.0,4.0,92,0.00,,,0.03,Wunderground v.1.15,2013-12-06 05:20:00,
2013-12-05 23:25:00,30.9,28.9,30.16,North,355,5.0,5.0,92,0.00,,,0.03,Wunderground v.1.15,2013-12-06 05:25:00,
2013-12-05 23:30:00,31.0,28.9,30.15,North,360,5.0,7.0,92,0.00,,,0.04,Wunderground v.1.15,2013-12-06 05:30:00,
2013-12-05 23:35:00,31.1,29.0,30.15,North,355,5.0,8.0,92,0.06,,,0.05,Wunderground v.1.15,2013-12-06 05:35:00,
2013-12-05 23:40:00,31.2,29.1,30.14,North,355,6.0,6.0,92,0.11,,,0.06,Wunderground v.1.15,2013-12-06 05:40:00,
2013-12-05 23:45:00,31.4,29.3,30.14,NNW,344,5.0,6.0,92,0.11,,,0.06,Wunderground v.1.15,2013-12-06 05:45:00,
2013-12-05 23:55:00,31.6,29.5,30.14,NNW,332,6.0,8.0,92,0.04,,,0.07,Wunderground v.1.15,2013-12-06 05:55:00,